Weather History for KCWI - October, 2012

Change the Weather History Date:

Saturday, October 27, 2012

  Actual Average Record
Temperature  
Mean Temperature 34 °F -  
Max Temperature 44 °F 60 °F 77 °F (1955)
Min Temperature 24 °F 40 °F 19 °F (1997)
Degree Days  
Heating Degree Days 31    
Moisture  
Dew Point 23 °F    
Average Humidity 67    
Maximum Humidity 86    
Minimum Humidity 39    
Precipitation  
Precipitation 0.00 in - - ()
Sea Level Pressure  
Sea Level Pressure 30.35 in    
Wind  
Wind Speed 7 mph (North)    
Max Wind Speed 13 mph    
Max Gust Speed 21 mph    
Visibility 10 miles    
Events      
Averages and records for this station are not official NWS values.
T = Trace of Precipitation, MM = Missing Value Source: NWS Daily Summary

Daily Weather History Graph

Daily Weather History Graph

Search for Another Location

Airport or City:

Trip Planner

Search our weather history database for the weather conditions in past years. The results will help you decide how hot, cold, wet, or windy it might be!

Date:

Astronomy

Oct. 27, 2012 Rise Set
Actual Time 7:28 AM CDT 6:01 PM CDT
Civil Twilight 6:59 AM CDT 6:30 PM CDT
Nautical Twilight 6:26 AM CDT 7:02 PM CDT
Astronomical Twilight 5:54 AM CDT 7:35 PM CDT
Moon 4:48 PM CDT (10/27) 5:22 AM CDT (10/27)
Length of Visible Light 11h 30m
Length of Day
10h 33m
Waxing Gibbous, 96% of the Moon is Illuminated
Oct 27
Waxing Gibbous
Oct 29
Full
Nov 6
Last Quarter
Nov 13
New
Nov 20
First Quarter

Hourly Weather History & Observations

Time (CDT) Temp. Windchill Dew Point Humidity Pressure Visibility Wind Dir Wind Speed Gust Speed Precip Events Conditions
12:15 AM 30.2 °F 23.4 °F 24.8 °F 80% 30.38 in 10.0 mi NNW 6.9 mph - N/A   Clear
12:35 AM 30.2 °F 23.4 °F 24.8 °F 80% 30.38 in 10.0 mi NNW 6.9 mph - N/A   Clear
12:55 AM 28.4 °F 21.2 °F 24.8 °F 86% 30.37 in 10.0 mi North 6.9 mph - N/A   Clear
1:15 AM 28.4 °F 21.2 °F 24.8 °F 86% 30.37 in 10.0 mi North 6.9 mph - N/A   Clear
1:35 AM 28.4 °F 21.2 °F 24.8 °F 86% 30.37 in 10.0 mi North 6.9 mph - N/A   Clear
1:55 AM 28.4 °F 22.2 °F 23.0 °F 80% 30.37 in 10.0 mi North 5.8 mph - N/A   Clear
2:15 AM 28.4 °F 22.2 °F 23.0 °F 80% 30.37 in 10.0 mi North 5.8 mph - N/A   Clear
2:35 AM 26.6 °F 19.1 °F 23.0 °F 86% 30.37 in 10.0 mi North 6.9 mph - N/A   Clear
2:55 AM 26.6 °F 19.1 °F 23.0 °F 86% 30.37 in 10.0 mi NNW 6.9 mph - N/A   Clear
3:35 AM 26.6 °F 19.1 °F 23.0 °F 86% 30.37 in 10.0 mi North 6.9 mph - N/A   Clear
3:55 AM 26.6 °F 19.1 °F 23.0 °F 86% 30.37 in 10.0 mi NNW 6.9 mph - N/A   Clear
4:15 AM 26.6 °F 19.1 °F 23.0 °F 86% 30.37 in 10.0 mi NNW 6.9 mph - N/A   Clear
4:35 AM 26.6 °F 20.0 °F 21.2 °F 80% 30.37 in 10.0 mi NNW 5.8 mph - N/A   Clear
4:55 AM 26.6 °F 18.2 °F 21.2 °F 80% 30.37 in 10.0 mi NNW 8.1 mph - N/A   Clear
5:15 AM 26.6 °F 18.2 °F 21.2 °F 80% 30.37 in 10.0 mi NNW 8.1 mph - N/A   Clear
5:35 AM 26.6 °F 19.1 °F 21.2 °F 80% 30.37 in 10.0 mi NNW 6.9 mph - N/A   Clear
5:55 AM 26.6 °F 18.2 °F 21.2 °F 80% 30.37 in 10.0 mi NNW 8.1 mph - N/A   Clear
6:15 AM 24.8 °F 16.9 °F 21.2 °F 86% 30.37 in 10.0 mi North 6.9 mph - N/A   Clear
6:55 AM 24.8 °F 16.1 °F 21.2 °F 86% 30.37 in 10.0 mi North 8.1 mph - N/A   Clear
7:15 AM 26.6 °F 17.5 °F 21.2 °F 80% 30.38 in 10.0 mi North 9.2 mph - N/A   Clear
7:35 AM 26.6 °F 17.5 °F 21.2 °F 80% 30.38 in 10.0 mi North 9.2 mph - N/A   Clear
7:55 AM 26.6 °F 17.5 °F 21.2 °F 80% 30.39 in 10.0 mi North 9.2 mph - N/A   Clear
8:15 AM 28.4 °F 19.7 °F 24.8 °F 86% 30.39 in 10.0 mi North 9.2 mph - N/A   Clear
8:35 AM 28.4 °F 19.7 °F 24.8 °F 86% 30.39 in 10.0 mi North 9.2 mph - N/A   Clear
8:55 AM 30.2 °F 21.9 °F 26.6 °F 86% 30.40 in 10.0 mi North 9.2 mph - N/A   Clear
9:15 AM 32.0 °F 25.6 °F 26.6 °F 80% 30.40 in 10.0 mi North 6.9 mph - N/A   Clear
9:35 AM 35.6 °F 30.7 °F 30.2 °F 81% 30.40 in 10.0 mi North 5.8 mph - N/A   Clear
9:55 AM 37.4 °F 32.1 °F 28.4 °F 70% 30.41 in 10.0 mi North 6.9 mph - N/A   Clear
10:35 AM 39.2 °F 35.0 °F 28.4 °F 65% 30.40 in 10.0 mi North 5.8 mph - N/A   Clear
10:55 AM 39.2 °F 33.0 °F 24.8 °F 56% 30.40 in 10.0 mi North 9.2 mph - N/A   Mostly Cloudy
11:15 AM 41.0 °F 35.2 °F 24.8 °F 53% 30.40 in 10.0 mi NNE 9.2 mph - N/A   Scattered Clouds
11:35 AM 41.0 °F 35.8 °F 23.0 °F 49% 30.39 in 10.0 mi North 8.1 mph - N/A   Mostly Cloudy
11:55 AM 42.8 °F 38.6 °F 21.2 °F 42% 30.38 in 10.0 mi NNW 6.9 mph - N/A   Partly Cloudy
12:15 PM 42.8 °F 38.0 °F 21.2 °F 42% 30.37 in 10.0 mi NNE 8.1 mph - N/A   Clear
12:35 PM 42.8 °F 38.0 °F 21.2 °F 42% 30.37 in 10.0 mi NW 8.1 mph - N/A   Partly Cloudy
12:55 PM 42.8 °F 38.6 °F 21.2 °F 42% 30.36 in 10.0 mi North 6.9 mph - N/A   Clear
1:15 PM 44.6 °F 39.2 °F 21.2 °F 39% 30.35 in 10.0 mi NNW 10.4 mph - N/A   Clear
1:35 PM 44.6 °F 39.7 °F 21.2 °F 39% 30.34 in 10.0 mi North 9.2 mph - N/A   Clear
1:55 PM 44.6 °F 39.7 °F 21.2 °F 39% 30.33 in 10.0 mi North 9.2 mph - N/A   Clear
2:15 PM 44.6 °F 39.2 °F 21.2 °F 39% 30.32 in 10.0 mi NNE 10.4 mph 17.3 mph N/A   Clear
2:35 PM 44.6 °F 38.4 °F 23.0 °F 43% 30.32 in 10.0 mi North 12.7 mph 20.7 mph N/A   Clear
2:55 PM 44.6 °F 40.2 °F 23.0 °F 43% 30.32 in 10.0 mi NNW 8.1 mph - N/A   Clear
3:15 PM 44.6 °F 39.2 °F 23.0 °F 43% 30.32 in 10.0 mi North 10.4 mph - N/A   Scattered Clouds
3:35 PM 44.6 °F 42.2 °F 21.2 °F 39% 30.32 in 10.0 mi NW 4.6 mph - N/A   Partly Cloudy
3:55 PM 44.6 °F 39.2 °F 21.2 °F 39% 30.31 in 10.0 mi North 10.4 mph - N/A   Clear
4:15 PM 42.8 °F 37.5 °F 21.2 °F 42% 30.31 in 10.0 mi North 9.2 mph - N/A   Clear
4:35 PM 42.8 °F 38.0 °F 23.0 °F 46% 30.31 in 10.0 mi North 8.1 mph - N/A   Clear
4:55 PM 42.8 °F 37.5 °F 23.0 °F 46% 30.31 in 10.0 mi North 9.2 mph - N/A   Clear
5:15 PM 42.8 °F 39.3 °F 24.8 °F 49% 30.31 in 10.0 mi NNE 5.8 mph - N/A   Clear
5:35 PM 41.0 °F 35.8 °F 23.0 °F 49% 30.30 in 10.0 mi North 8.1 mph - N/A   Clear
5:55 PM 39.2 °F 35.0 °F 24.8 °F 56% 30.30 in 10.0 mi North 5.8 mph - N/A   Clear
6:15 PM 37.4 °F 33.8 °F 24.8 °F 60% 30.31 in 10.0 mi North 4.6 mph - N/A   Clear
6:35 PM 37.4 °F 33.8 °F 24.8 °F 60% 30.32 in 10.0 mi NNE 4.6 mph - N/A   Clear
6:55 PM 35.6 °F 32.8 °F 24.8 °F 65% 30.32 in 10.0 mi North 3.5 mph - N/A   Clear
7:15 PM 35.6 °F 32.8 °F 24.8 °F 65% 30.32 in 10.0 mi North 3.5 mph - N/A   Clear
7:35 PM 35.6 °F 31.7 °F 24.8 °F 65% 30.32 in 10.0 mi North 4.6 mph - N/A   Clear
7:55 PM 33.8 °F 28.6 °F 24.8 °F 70% 30.32 in 10.0 mi NNE 5.8 mph - N/A   Clear
8:15 PM 33.8 °F 27.7 °F 24.8 °F 70% 30.32 in 10.0 mi North 6.9 mph - N/A   Clear
8:35 PM 33.8 °F 27.7 °F 24.8 °F 70% 30.32 in 10.0 mi North 6.9 mph - N/A   Clear
8:55 PM 32.0 °F 25.6 °F 24.8 °F 75% 30.32 in 10.0 mi North 6.9 mph - N/A   Clear
9:15 PM 30.2 °F 22.6 °F 23.0 °F 75% 30.32 in 10.0 mi North 8.1 mph - N/A   Clear
9:55 PM 30.2 °F 24.3 °F 23.0 °F 75% 30.33 in 10.0 mi North 5.8 mph - N/A   Clear
10:15 PM 30.2 °F 23.4 °F 24.8 °F 80% 30.34 in 10.0 mi North 6.9 mph - N/A   Clear
10:35 PM 30.2 °F 21.9 °F 23.0 °F 75% 30.34 in 10.0 mi North 9.2 mph - N/A   Clear
10:55 PM 30.2 °F 22.6 °F 23.0 °F 75% 30.34 in 10.0 mi North 8.1 mph - N/A   Clear
11:15 PM 28.4 °F 21.2 °F 23.0 °F 80% 30.34 in 10.0 mi North 6.9 mph - N/A   Clear
11:35 PM 28.4 °F 23.3 °F 23.0 °F 80% 30.34 in 10.0 mi North 4.6 mph - N/A   Clear
11:55 PM 28.4 °F 22.2 °F 23.0 °F 80% 30.34 in 10.0 mi North 5.8 mph - N/A   Clear